Location: Unspecified
(0.0000°N, 0.0000°E)
Time: 14:37:42
(UTC+00:00)

A-11 Canister half - Pass Details

Date: 25 May 2026
Orbit: 1524 x 1684 km, 47.3° (Epoch: 7 June)

Event Time Altitude Azimuth Distance (km) Brightness Sun altitude
Rises 09:41:03 0° 200° (SSW) 4,733 11.3 50.7°
Reaches altitude 10° 09:44:41 10° 189° (S) 3,728 10.9 51.5°
Maximum altitude 09:52:35 30° 131° (SE) 2,462 10.6 53.1°
Drops below altitude 10° 10:00:20 10° 74° (ENE) 3,681 11.7 54.6°
Sets 10:03:51 0° 64° (ENE) 4,664 12.1 55.3°
